,,�O�C���x [��],����1,���ԉ��x [��],����2,���Ԏ��x [��],����3,�Q�����x [��],����4,���� [��],����5
2003/4/1,0:00,4.4,0 ,21.2,0 ,56.8,0 ,20.1,0 ,18.1,0 
2003/4/1,0:15,3.8,0 ,21.2,0 ,56.5,0 ,20,0 ,18,0 
2003/4/1,0:30,3.3,0 ,21.3,0 ,58.2,0 ,20,0 ,18.1,0 
2003/4/1,0:45,3.5,0 ,21.3,0 ,59.6,0 ,20,0 ,18.1,0 
2003/4/1,1:00,3.4,0 ,21.2,0 ,59.4,0 ,19.9,0 ,18.1,0 
2003/4/1,1:15,3.4,0 ,21.1,0 ,60.3,0 ,19.9,0 ,18.1,0 
2003/4/1,1:30,3.3,0 ,21.1,0 ,60.6,0 ,19.8,0 ,18.1,0 
2003/4/1,1:45,3,0 ,21.1,0 ,60.1,0 ,19.8,0 ,18,0 
2003/4/1,2:00,3.3,0 ,21,0 ,60.4,0 ,19.8,0 ,18,0 
2003/4/1,2:15,3.1,0 ,21,0 ,59.4,0 ,19.8,0 ,18,0 
2003/4/1,2:30,3.3,0 ,20.9,0 ,59.4,0 ,19.8,0 ,18,0 
2003/4/1,2:45,3.3,0 ,20.9,0 ,59.3,0 ,19.8,0 ,18,0 
2003/4/1,3:00,2.9,0 ,20.9,0 ,59,0 ,19.8,0 ,17.9,0 
2003/4/1,3:15,2.4,0 ,20.9,0 ,58.6,0 ,19.8,0 ,17.9,0 
2003/4/1,3:30,2.4,0 ,20.9,0 ,58.4,0 ,19.9,0 ,17.9,0 
2003/4/1,3:45,2.2,0 ,20.9,0 ,58.1,0 ,19.9,0 ,17.9,0 
2003/4/1,4:00,2.1,0 ,21,0 ,57.9,0 ,19.9,0 ,17.8,0 
2003/4/1,4:15,2,0 ,21,0 ,57.6,0 ,19.9,0 ,17.8,0 
2003/4/1,4:30,1.9,0 ,21.1,0 ,57.5,0 ,19.9,0 ,17.8,0 
2003/4/1,4:45,1.9,0 ,21.1,0 ,57.2,0 ,19.9,0 ,17.8,0 
2003/4/1,5:00,1.6,0 ,21.1,0 ,56.9,0 ,19.9,0 ,17.8,0 
2003/4/1,5:15,1.5,0 ,21.2,0 ,56.8,0 ,19.9,0 ,17.7,0 
2003/4/1,5:30,1.6,0 ,21.2,0 ,56.6,0 ,19.9,0 ,17.7,0 
2003/4/1,5:45,1.6,0 ,21.2,0 ,56.5,0 ,19.9,0 ,17.7,0 
2003/4/1,6:00,1.5,0 ,21.3,0 ,56.2,0 ,19.9,0 ,17.7,0 
2003/4/1,6:15,1.6,0 ,21.4,0 ,55.9,0 ,19.9,0 ,17.7,0 
2003/4/1,6:30,1.5,0 ,21.4,0 ,55.9,0 ,19.9,0 ,17.7,0 
2003/4/1,6:45,1.8,0 ,21.5,0 ,56,0 ,19.9,0 ,17.7,0 
2003/4/1,7:00,2,0 ,21.6,0 ,55.8,0 ,19.9,0 ,17.7,0 
2003/4/1,7:15,2.5,0 ,21.7,0 ,55.6,0 ,19.9,0 ,17.7,0 
2003/4/1,7:30,2.8,0 ,21.8,0 ,55.5,0 ,20,0 ,17.7,0 
2003/4/1,7:45,3.6,0 ,21.9,0 ,55.2,0 ,20.1,0 ,17.7,0 
2003/4/1,8:00,3.8,0 ,21.9,0 ,55.5,0 ,20.3,0 ,17.7,0 
2003/4/1,8:15,4.5,0 ,22,0 ,55.5,0 ,20.4,0 ,17.7,0 
2003/4/1,8:30,5,0 ,22.1,0 ,55.1,0 ,20.5,0 ,17.8,0 
2003/4/1,8:45,5.2,0 ,22.2,0 ,55.1,0 ,20.6,0 ,17.8,0 
2003/4/1,9:00,5.6,0 ,22.3,0 ,55.3,0 ,20.7,0 ,17.9,0 
2003/4/1,9:15,6,0 ,22.4,0 ,55.2,0 ,20.8,0 ,18,0 
2003/4/1,9:30,6.5,0 ,22.2,0 ,55.3,0 ,20.9,0 ,18,0 
2003/4/1,9:45,6.9,0 ,22.3,0 ,54.4,0 ,21,0 ,18,0 
2003/4/1,10:00,7.3,0 ,22.4,0 ,54.5,0 ,21.1,0 ,18.1,0 
2003/4/1,10:15,7.7,0 ,22.5,0 ,54.6,0 ,21.2,0 ,18.1,0 
2003/4/1,10:30,8.5,0 ,22.5,0 ,54.6,0 ,21.3,0 ,18.1,0 
2003/4/1,10:45,9.1,0 ,22.5,0 ,54.7,0 ,21.4,0 ,18.2,0 
2003/4/1,11:00,8.9,0 ,22.7,0 ,54.3,0 ,21.5,0 ,18.3,0 
2003/4/1,11:15,10.1,0 ,22.7,0 ,54.3,0 ,21.6,0 ,18.4,0 
2003/4/1,11:30,10.5,0 ,22.9,0 ,54,0 ,21.7,0 ,18.5,0 
2003/4/1,11:45,10.4,0 ,23,0 ,54,0 ,21.9,0 ,18.9,0 
2003/4/1,12:00,11.6,0 ,23.1,0 ,53.7,0 ,22,0 ,18.9,0 
2003/4/1,12:15,12,0 ,23.2,0 ,53.6,0 ,22.1,0 ,18.8,0 
2003/4/1,12:30,11.1,0 ,23.3,0 ,53.3,0 ,22.2,0 ,18.9,0 
2003/4/1,12:45,11.5,0 ,23.5,0 ,53.1,0 ,22.4,0 ,18.9,0 
2003/4/1,13:00,12.6,0 ,23.7,0 ,53.1,0 ,22.5,0 ,19,0 
2003/4/1,13:15,13,0 ,23.8,0 ,52.9,0 ,22.6,0 ,19.1,0 
2003/4/1,13:30,12.6,0 ,23.9,0 ,52.7,0 ,22.8,0 ,19.1,0 
2003/4/1,13:45,13.6,0 ,24.1,0 ,52.6,0 ,22.9,0 ,19.3,0 
2003/4/1,14:00,12.3,0 ,24.2,0 ,52.4,0 ,23.1,0 ,19.4,0 
2003/4/1,14:15,12.2,0 ,24.2,0 ,52.6,0 ,23.3,0 ,19.5,0 
2003/4/1,14:30,11.3,0 ,24.9,0 ,50.7,0 ,23.4,0 ,19.7,0 
2003/4/1,14:45,12.7,0 ,27.4,0 ,45.1,0 ,23.6,0 ,19.9,0 
2003/4/1,15:00,12.9,0 ,29.1,0 ,40.7,0 ,23.8,0 ,20.1,0 
2003/4/1,15:15,12.4,0 ,29.3,0 ,40.1,0 ,24.1,0 ,20.4,0 
2003/4/1,15:30,12.9,0 ,26.1,0 ,47.8,0 ,24.3,0 ,20.6,0 
2003/4/1,15:45,13.2,0 ,25.7,0 ,49.3,0 ,24.5,0 ,20.9,0 
2003/4/1,16:00,12.3,0 ,25.4,0 ,50.3,0 ,24.7,0 ,21.1,0 
2003/4/1,16:15,12.5,0 ,25.1,0 ,51,0 ,24.8,0 ,21.3,0 
2003/4/1,16:30,13.3,0 ,24.9,0 ,51.7,0 ,24.9,0 ,21.5,0 
2003/4/1,16:45,12.7,0 ,24.8,0 ,52.2,0 ,25,0 ,21.6,0 
2003/4/1,17:00,12.7,0 ,24.6,0 ,52.8,0 ,24.9,0 ,21.7,0 
2003/4/1,17:15,11.8,0 ,24.5,0 ,53.2,0 ,24.8,0 ,21.7,0 
2003/4/1,17:30,10.8,0 ,24.4,0 ,53.5,0 ,24.7,0 ,21.7,0 
2003/4/1,17:45,10.4,0 ,24.3,0 ,53.9,0 ,24.5,0 ,21.5,0 
2003/4/1,18:00,9.5,0 ,24.2,0 ,54.5,0 ,24.3,0 ,21.4,0 
2003/4/1,18:15,9.1,0 ,24,0 ,54.1,0 ,24,0 ,21.3,0 
2003/4/1,18:30,8.9,0 ,24,0 ,53.6,0 ,23.9,0 ,21.2,0 
2003/4/1,18:45,8.6,0 ,23.9,0 ,53.1,0 ,23.7,0 ,21.1,0 
2003/4/1,19:00,8.2,0 ,23.9,0 ,53.2,0 ,23.6,0 ,21,0 
2003/4/1,19:15,8.7,0 ,23.9,0 ,54.3,0 ,23.5,0 ,20.9,0 
2003/4/1,19:30,8.4,0 ,23.9,0 ,54.4,0 ,23.4,0 ,20.9,0 
2003/4/1,19:45,8.6,0 ,23.8,0 ,54.6,0 ,23.3,0 ,20.8,0 
2003/4/1,20:00,7.5,0 ,23.8,0 ,54.7,0 ,23.2,0 ,20.7,0 
2003/4/1,20:15,7,0 ,23.7,0 ,54.9,0 ,23.1,0 ,20.7,0 
2003/4/1,20:30,6.4,0 ,23.7,0 ,55.2,0 ,23,0 ,20.6,0 
2003/4/1,20:45,6.1,0 ,23.6,0 ,56,0 ,22.9,0 ,20.5,0 
2003/4/1,21:00,6,0 ,23.6,0 ,55.2,0 ,22.8,0 ,20.4,0 
2003/4/1,21:15,5.9,0 ,23.5,0 ,55.4,0 ,22.7,0 ,20.3,0 
2003/4/1,21:30,5.6,0 ,23.5,0 ,55.5,0 ,22.6,0 ,20.3,0 
2003/4/1,21:45,5.4,0 ,23.4,0 ,56,0 ,22.5,0 ,20.2,0 
2003/4/1,22:00,4.7,0 ,23.4,0 ,56.1,0 ,22.4,0 ,20.1,0 
2003/4/1,22:15,3.7,0 ,23.3,0 ,56,0 ,22.3,0 ,20.1,0 
2003/4/1,22:30,4,0 ,23.3,0 ,56.5,0 ,22.2,0 ,20.1,0 
2003/4/1,22:45,3.9,0 ,23.2,0 ,56.6,0 ,22.1,0 ,20,0 
2003/4/1,23:00,4.1,0 ,23.2,0 ,56.7,0 ,22,0 ,19.9,0 
2003/4/1,23:15,3.8,0 ,23.1,0 ,56.3,0 ,22,0 ,19.9,0 
2003/4/1,23:30,3.7,0 ,23.1,0 ,57,0 ,22,0 ,19.8,0 
2003/4/1,23:45,3.8,0 ,22.9,0 ,58.3,0 ,22,0 ,19.8,0 
2003/4/2,0:00,3.4,0 ,22.8,0 ,58.2,0 ,22,0 ,19.8,0 
2003/4/2,0:15,3.3,0 ,22.7,0 ,58.2,0 ,22,0 ,19.7,0 
2003/4/2,0:30,3.2,0 ,22.6,0 ,58.2,0 ,21.9,0 ,19.7,0 
2003/4/2,0:45,3,0 ,22.6,0 ,58.2,0 ,21.9,0 ,19.7,0 
2003/4/2,1:00,2.9,0 ,22.5,0 ,57.9,0 ,21.8,0 ,19.6,0 
2003/4/2,1:15,3,0 ,22.5,0 ,57.8,0 ,21.8,0 ,19.6,0 
2003/4/2,1:30,2.8,0 ,22.5,0 ,58.1,0 ,21.7,0 ,19.6,0 
2003/4/2,1:45,2.7,0 ,22.4,0 ,57.6,0 ,21.6,0 ,19.5,0 
2003/4/2,2:00,2.7,0 ,22.4,0 ,57.3,0 ,21.5,0 ,19.5,0 
2003/4/2,2:15,2.7,0 ,22.4,0 ,57.2,0 ,21.4,0 ,19.4,0 
2003/4/2,2:30,2.7,0 ,22.4,0 ,57,0 ,21.4,0 ,19.4,0 
2003/4/2,2:45,2.4,0 ,22.4,0 ,56.9,0 ,21.3,0 ,19.3,0 
2003/4/2,3:00,2.4,0 ,22.4,0 ,56.7,0 ,21.2,0 ,19.3,0 
2003/4/2,3:15,2.2,0 ,22.4,0 ,56.6,0 ,21.2,0 ,19.2,0 
2003/4/2,3:30,2.3,0 ,22.4,0 ,56.6,0 ,21.1,0 ,19.2,0 
2003/4/2,3:45,1.9,0 ,22.4,0 ,56.4,0 ,21.1,0 ,19.2,0 
2003/4/2,4:00,2,0 ,22.4,0 ,56.4,0 ,21,0 ,19.1,0 
2003/4/2,4:15,2.2,0 ,22.4,0 ,56,0 ,21,0 ,19.1,0 
2003/4/2,4:30,2.1,0 ,22.5,0 ,56.1,0 ,21,0 ,19,0 
2003/4/2,4:45,2,0 ,22.5,0 ,56,0 ,20.9,0 ,19,0 
2003/4/2,5:00,2,0 ,22.5,0 ,55.7,0 ,20.9,0 ,18.9,0 
2003/4/2,5:15,2.3,0 ,22.6,0 ,55.7,0 ,20.9,0 ,18.9,0 
2003/4/2,5:30,2.8,0 ,22.6,0 ,55.6,0 ,20.8,0 ,18.9,0 
2003/4/2,5:45,2.6,0 ,22.6,0 ,55.5,0 ,20.8,0 ,18.9,0 
2003/4/2,6:00,2.9,0 ,22.7,0 ,55.3,0 ,20.8,0 ,18.8,0 
2003/4/2,6:15,3.1,0 ,22.7,0 ,55.3,0 ,20.8,0 ,18.8,0 
2003/4/2,6:30,3.6,0 ,22.7,0 ,55.2,0 ,20.8,0 ,18.8,0 
2003/4/2,6:45,3.5,0 ,22.7,0 ,55,0 ,20.7,0 ,18.8,0 
2003/4/2,7:00,4,0 ,22.7,0 ,54.9,0 ,20.7,0 ,18.7,0 
2003/4/2,7:15,4,0 ,22.8,0 ,55,0 ,20.7,0 ,18.8,0 
2003/4/2,7:30,4.1,0 ,22.7,0 ,55.5,0 ,20.9,0 ,18.7,0 
2003/4/2,7:45,4.2,0 ,22.7,0 ,55.7,0 ,21,0 ,18.7,0 
2003/4/2,8:00,4.6,0 ,22.7,0 ,55.5,0 ,21,0 ,18.8,0 
2003/4/2,8:15,4.5,0 ,22.7,0 ,55.3,0 ,21.1,0 ,18.8,0 
2003/4/2,8:30,4.7,0 ,22.7,0 ,55.4,0 ,21.1,0 ,18.7,0 
2003/4/2,8:45,4.6,0 ,22.7,0 ,55.8,0 ,21.1,0 ,18.8,0 
2003/4/2,9:00,4.6,0 ,22.6,0 ,56.2,0 ,21.1,0 ,18.8,0 
2003/4/2,9:15,4.7,0 ,22.6,0 ,56.9,0 ,21.1,0 ,18.7,0 
2003/4/2,9:30,4.9,0 ,22.6,0 ,56.8,0 ,21.1,0 ,18.7,0 
2003/4/2,9:45,5.1,0 ,22.3,0 ,54.8,0 ,21.1,0 ,18.7,0 
2003/4/2,10:00,5,0 ,22.2,0 ,53.8,0 ,21,0 ,18.7,0 
2003/4/2,10:15,5.9,0 ,22.1,0 ,54.3,0 ,21,0 ,18.7,0 
2003/4/2,10:30,6.1,0 ,22.1,0 ,55.2,0 ,21,0 ,18.7,0 
2003/4/2,10:45,6.2,0 ,22.2,0 ,54.9,0 ,21,0 ,18.8,0 
2003/4/2,11:00,6.4,0 ,22.2,0 ,55,0 ,21.1,0 ,18.8,0 
2003/4/2,11:15,6.8,0 ,22.2,0 ,55.6,0 ,21.1,0 ,18.9,0 
2003/4/2,11:30,6.7,0 ,22.2,0 ,55.6,0 ,21.2,0 ,19,0 
2003/4/2,11:45,7.1,0 ,22.2,0 ,55.5,0 ,21.2,0 ,19,0 
2003/4/2,12:00,7,0 ,22.3,0 ,55.7,0 ,21.3,0 ,19,0 
2003/4/2,12:15,7.6,0 ,22.4,0 ,55.7,0 ,21.3,0 ,19,0 
2003/4/2,12:30,7.7,0 ,22.4,0 ,55.8,0 ,21.4,0 ,19.1,0 
2003/4/2,12:45,8.2,0 ,22.4,0 ,56.2,0 ,21.4,0 ,19.2,0 
2003/4/2,13:00,8.7,0 ,22.5,0 ,56.6,0 ,21.5,0 ,19.2,0 
2003/4/2,13:15,8.8,0 ,22.5,0 ,56.1,0 ,21.5,0 ,19.2,0 
2003/4/2,13:30,9,0 ,22.6,0 ,56.8,0 ,21.6,0 ,19.3,0 
2003/4/2,13:45,9,0 ,22.8,0 ,56.2,0 ,21.6,0 ,19.3,0 
2003/4/2,14:00,9.2,0 ,22.8,0 ,56.1,0 ,21.7,0 ,19.4,0 
2003/4/2,14:15,9.5,0 ,22.8,0 ,56.1,0 ,21.7,0 ,19.4,0 
2003/4/2,14:30,10,0 ,22.9,0 ,56.1,0 ,21.7,0 ,19.5,0 
2003/4/2,14:45,9.5,0 ,23,0 ,55.9,0 ,21.8,0 ,19.5,0 
2003/4/2,15:00,9.8,0 ,22.9,0 ,56.3,0 ,21.8,0 ,19.6,0 
2003/4/2,15:15,9.8,0 ,22.9,0 ,56.1,0 ,21.8,0 ,19.6,0 
2003/4/2,15:30,10,0 ,22.9,0 ,56.3,0 ,21.8,0 ,19.6,0 
2003/4/2,15:45,9.7,0 ,22.8,0 ,56,0 ,21.8,0 ,19.6,0 
2003/4/2,16:00,9.5,0 ,22.8,0 ,56.5,0 ,21.8,0 ,19.6,0 
2003/4/2,16:15,9.5,0 ,22.7,0 ,56.9,0 ,21.8,0 ,19.6,0 
2003/4/2,16:30,9.5,0 ,22.7,0 ,57,0 ,21.7,0 ,19.6,0 
2003/4/2,16:45,9.2,0 ,22.7,0 ,57,0 ,21.7,0 ,19.6,0 
2003/4/2,17:00,9.2,0 ,22.6,0 ,56.7,0 ,21.6,0 ,19.6,0 
2003/4/2,17:15,9.1,0 ,22.5,0 ,56.9,0 ,21.6,0 ,19.6,0 
2003/4/2,17:30,9,0 ,22.5,0 ,56.9,0 ,21.6,0 ,19.5,0 
2003/4/2,17:45,9.1,0 ,22.4,0 ,57.1,0 ,21.5,0 ,19.5,0 
2003/4/2,18:00,8.4,0 ,22.4,0 ,58,0 ,21.5,0 ,19.5,0 
2003/4/2,18:15,7.9,0 ,22.2,0 ,58.2,0 ,21.4,0 ,19.5,0 
2003/4/2,18:30,7.6,0 ,22.2,0 ,57.7,0 ,21.3,0 ,19.4,0 
2003/4/2,18:45,7.3,0 ,22.2,0 ,57.7,0 ,21.3,0 ,19.4,0 
2003/4/2,19:00,6.7,0 ,22.1,0 ,57.7,0 ,21.2,0 ,19.4,0 
2003/4/2,19:15,6.6,0 ,22,0 ,57.7,0 ,21.1,0 ,19.3,0 
2003/4/2,19:30,6,0 ,22.1,0 ,56.5,0 ,21,0 ,19.2,0 
2003/4/2,19:45,6,0 ,22.1,0 ,56.5,0 ,20.9,0 ,19.2,0 
2003/4/2,20:00,5.3,0 ,22.1,0 ,56.5,0 ,20.9,0 ,19.1,0 
2003/4/2,20:15,5.5,0 ,22.1,0 ,56.5,0 ,20.8,0 ,19.1,0 
2003/4/2,20:30,5.8,0 ,22,0 ,56.7,0 ,20.7,0 ,19,0 
2003/4/2,20:45,5.5,0 ,22,0 ,56.6,0 ,20.7,0 ,19,0 
2003/4/2,21:00,5.4,0 ,22,0 ,56.8,0 ,20.6,0 ,19.1,0 
2003/4/2,21:15,5.5,0 ,22,0 ,57.1,0 ,20.5,0 ,19,0 
2003/4/2,21:30,5.3,0 ,21.9,0 ,57.4,0 ,20.4,0 ,18.9,0 
2003/4/2,21:45,4.9,0 ,21.9,0 ,57.5,0 ,20.3,0 ,18.9,0 
2003/4/2,22:00,4,0 ,21.8,0 ,57.4,0 ,20.3,0 ,18.8,0 
2003/4/2,22:15,3.7,0 ,21.8,0 ,57.4,0 ,20.2,0 ,18.7,0 
2003/4/2,22:30,3.3,0 ,21.7,0 ,57.5,0 ,20.2,0 ,18.7,0 
2003/4/2,22:45,3.8,0 ,21.7,0 ,57.3,0 ,20.1,0 ,18.6,0 
2003/4/2,23:00,3.5,0 ,21.7,0 ,57.3,0 ,20.1,0 ,18.6,0 
2003/4/2,23:15,3,0 ,21.6,0 ,57.4,0 ,20,0 ,18.5,0 
2003/4/2,23:30,2.6,0 ,21.5,0 ,57.4,0 ,20,0 ,18.4,0 
2003/4/2,23:45,2.7,0 ,21.5,0 ,57.2,0 ,19.9,0 ,18.4,0 
2003/4/3,0:00,2.6,0 ,21.4,0 ,57.2,0 ,19.9,0 ,18.3,0 
2003/4/3,0:15,2.5,0 ,21.4,0 ,58.3,0 ,19.8,0 ,18.3,0 
2003/4/3,0:30,2.2,0 ,21.3,0 ,57.7,0 ,19.7,0 ,18.2,0 
2003/4/3,0:45,1.6,0 ,21.3,0 ,59.1,0 ,19.6,0 ,18.2,0 
2003/4/3,1:00,1.5,0 ,21.3,0 ,59.8,0 ,19.6,0 ,18.2,0 
2003/4/3,1:15,1.8,0 ,21.1,0 ,60.6,0 ,19.5,0 ,18.1,0 
2003/4/3,1:30,1.3,0 ,21.1,0 ,60.2,0 ,19.4,0 ,18.1,0 
2003/4/3,1:45,1,0 ,21,0 ,59.9,0 ,19.3,0 ,18.1,0 
2003/4/3,2:00,1.3,0 ,21,0 ,59.3,0 ,19.2,0 ,18,0 
2003/4/3,2:15,0.8,0 ,20.9,0 ,58.9,0 ,19.2,0 ,18,0 
2003/4/3,2:30,1,0 ,20.9,0 ,58.7,0 ,19.2,0 ,17.9,0 
2003/4/3,2:45,0.7,0 ,20.9,0 ,58.4,0 ,19.2,0 ,17.9,0 
2003/4/3,3:00,0.3,0 ,20.8,0 ,58.4,0 ,19.1,0 ,17.8,0 
2003/4/3,3:15,0,0 ,20.8,0 ,58.1,0 ,19.1,0 ,17.8,0 
2003/4/3,3:30,0.3,0 ,20.8,0 ,57.9,0 ,19,0 ,17.7,0 
2003/4/3,3:45,0.3,0 ,20.8,0 ,57.7,0 ,18.9,0 ,17.7,0 
2003/4/3,4:00,0.1,0 ,20.8,0 ,57.5,0 ,18.9,0 ,17.6,0 
2003/4/3,4:15,0.2,0 ,20.9,0 ,57.4,0 ,18.9,0 ,17.6,0 
2003/4/3,4:30,0.3,0 ,20.9,0 ,57.1,0 ,18.8,0 ,17.5,0 
2003/4/3,4:45,0.4,0 ,20.9,0 ,56.8,0 ,18.8,0 ,17.5,0 
2003/4/3,5:00,-0.2,0 ,20.9,0 ,56.6,0 ,18.8,0 ,17.4,0 
2003/4/3,5:15,-0.1,0 ,20.9,0 ,56.5,0 ,18.7,0 ,17.4,0 
2003/4/3,5:30,-0.3,0 ,21,0 ,56.4,0 ,18.7,0 ,17.3,0 
2003/4/3,5:45,0.1,0 ,21,0 ,56.3,0 ,18.7,0 ,17.3,0 
2003/4/3,6:00,0.4,0 ,21,0 ,56.3,0 ,18.6,0 ,17.3,0 
2003/4/3,6:15,0.9,0 ,21.1,0 ,56.2,0 ,18.6,0 ,17.3,0 
2003/4/3,6:30,1.3,0 ,21.1,0 ,56.1,0 ,18.6,0 ,17.2,0 
2003/4/3,6:45,1.7,0 ,21.2,0 ,56,0 ,18.6,0 ,17.2,0 
2003/4/3,7:00,2.3,0 ,21.4,0 ,55.6,0 ,18.6,0 ,17.3,0 
2003/4/3,7:15,3,0 ,21.3,0 ,56.2,0 ,18.6,0 ,17.3,0 
2003/4/3,7:30,3.7,0 ,21.4,0 ,57,0 ,18.6,0 ,17.3,0 
2003/4/3,7:45,4.2,0 ,21.5,0 ,57.7,0 ,19,0 ,17.3,0 
2003/4/3,8:00,4.8,0 ,21.5,0 ,58.3,0 ,19.2,0 ,17.3,0 
2003/4/3,8:15,5.5,0 ,21.6,0 ,57.7,0 ,19.3,0 ,17.3,0 
2003/4/3,8:30,6,0 ,21.6,0 ,57.3,0 ,19.5,0 ,17.8,0 
2003/4/3,8:45,6.6,0 ,21.7,0 ,57,0 ,19.6,0 ,18.2,0 
2003/4/3,9:00,7.3,0 ,21.8,0 ,56.7,0 ,19.7,0 ,18.5,0 
2003/4/3,9:15,7.5,0 ,21.9,0 ,57,0 ,19.8,0 ,18.6,0 
2003/4/3,9:30,7.8,0 ,22,0 ,56.8,0 ,19.9,0 ,18.8,0 
2003/4/3,9:45,8.4,0 ,22.1,0 ,56.7,0 ,20,0 ,18.9,0 
2003/4/3,10:00,8.3,0 ,22,0 ,56.6,0 ,20.1,0 ,19,0 
2003/4/3,10:15,9,0 ,22.1,0 ,56.5,0 ,20.2,0 ,19,0 
2003/4/3,10:30,9.2,0 ,22.1,0 ,56.2,0 ,20.3,0 ,19.1,0 
2003/4/3,10:45,9.6,0 ,22.1,0 ,56.3,0 ,20.4,0 ,19.1,0 
2003/4/3,11:00,10.1,0 ,22.2,0 ,56,0 ,20.5,0 ,19.2,0 
2003/4/3,11:15,10.8,0 ,22.3,0 ,55.9,0 ,20.6,0 ,19.3,0 
2003/4/3,11:30,11.5,0 ,22.5,0 ,55.4,0 ,20.7,0 ,19.3,0 
2003/4/3,11:45,12.3,0 ,22.6,0 ,55.1,0 ,20.8,0 ,19.4,0 
2003/4/3,12:00,12.3,0 ,22.7,0 ,55,0 ,20.9,0 ,19.5,0 
2003/4/3,12:15,12.9,0 ,22.9,0 ,54.9,0 ,21,0 ,19.5,0 
2003/4/3,12:30,13.4,0 ,23.1,0 ,55,0 ,21.1,0 ,19.6,0 
2003/4/3,12:45,13.1,0 ,23.2,0 ,54.7,0 ,21.2,0 ,19.7,0 
2003/4/3,13:00,14,0 ,23.3,0 ,54.5,0 ,21.4,0 ,19.6,0 
2003/4/3,13:15,13.8,0 ,23.4,0 ,54.3,0 ,21.5,0 ,19.4,0 
2003/4/3,13:30,14.2,0 ,23.5,0 ,54.2,0 ,21.7,0 ,19.4,0 
2003/4/3,13:45,14.7,0 ,23.6,0 ,53.9,0 ,21.8,0 ,19.3,0 
2003/4/3,14:00,14.8,0 ,23.8,0 ,53.6,0 ,22,0 ,19.4,0 
2003/4/3,14:15,15.5,0 ,23.9,0 ,53.4,0 ,22.2,0 ,19.4,0 
2003/4/3,14:30,15.5,0 ,24.3,0 ,52.3,0 ,22.4,0 ,19.5,0 
2003/4/3,14:45,15.3,0 ,25.3,0 ,49.4,0 ,22.6,0 ,19.7,0 
2003/4/3,15:00,15.7,0 ,27.8,0 ,43.5,0 ,22.9,0 ,19.9,0 
2003/4/3,15:15,14.4,0 ,26.3,0 ,47.3,0 ,23,0 ,20.1,0 
2003/4/3,15:30,14.9,0 ,25.1,0 ,50.3,0 ,23.2,0 ,20.3,0 
2003/4/3,15:45,15.1,0 ,24.8,0 ,51.4,0 ,23.5,0 ,20.6,0 
2003/4/3,16:00,14.6,0 ,24.7,0 ,52,0 ,23.7,0 ,20.8,0 
2003/4/3,16:15,14,0 ,24.6,0 ,52.5,0 ,23.8,0 ,21,0 
2003/4/3,16:30,14.7,0 ,24.5,0 ,52.8,0 ,23.9,0 ,21.2,0 
2003/4/3,16:45,14,0 ,24.4,0 ,53.3,0 ,24,0 ,21.3,0 
2003/4/3,17:00,13.8,0 ,24.3,0 ,53.5,0 ,24,0 ,21.5,0 
2003/4/3,17:15,13,0 ,24.2,0 ,53.9,0 ,24,0 ,21.5,0 
2003/4/3,17:30,12,0 ,24.1,0 ,54.2,0 ,23.9,0 ,21.5,0 
2003/4/3,17:45,11.7,0 ,24,0 ,54.6,0 ,23.6,0 ,21.3,0 
2003/4/3,18:00,10.7,0 ,23.8,0 ,55,0 ,23.4,0 ,21.2,0 
2003/4/3,18:15,10.4,0 ,23.8,0 ,55.4,0 ,23.2,0 ,21.1,0 
2003/4/3,18:30,10.1,0 ,23.7,0 ,55.4,0 ,23.1,0 ,21,0 
2003/4/3,18:45,9.3,0 ,23.6,0 ,55.7,0 ,23,0 ,20.9,0 
2003/4/3,19:00,8.8,0 ,23.6,0 ,56,0 ,22.8,0 ,20.8,0 
2003/4/3,19:15,8.8,0 ,23.5,0 ,56.7,0 ,22.7,0 ,20.8,0 
2003/4/3,19:30,8.4,0 ,23.4,0 ,56.6,0 ,22.6,0 ,20.7,0 
2003/4/3,19:45,8,0 ,23.4,0 ,56.8,0 ,22.5,0 ,20.6,0 
2003/4/3,20:00,7.3,0 ,23.4,0 ,56.9,0 ,22.4,0 ,20.6,0 
2003/4/3,20:15,7.4,0 ,23.4,0 ,56.4,0 ,22.3,0 ,20.5,0 
2003/4/3,20:30,6.7,0 ,23.3,0 ,56.2,0 ,22.2,0 ,20.4,0 
2003/4/3,20:45,6.1,0 ,23.2,0 ,56.4,0 ,22.1,0 ,20.4,0 
2003/4/3,21:00,5.7,0 ,23.2,0 ,56.8,0 ,22,0 ,20.3,0 
2003/4/3,21:15,5.4,0 ,23.2,0 ,56.3,0 ,21.9,0 ,20.2,0 
2003/4/3,21:30,5.1,0 ,23.1,0 ,56.4,0 ,21.8,0 ,20.2,0 
2003/4/3,21:45,5,0 ,23.1,0 ,56.2,0 ,21.7,0 ,20.1,0 
2003/4/3,22:00,4.4,0 ,23,0 ,55.9,0 ,21.6,0 ,20,0 
2003/4/3,22:15,4.4,0 ,23,0 ,56.2,0 ,21.5,0 ,19.9,0 
2003/4/3,22:30,4.1,0 ,23,0 ,56.3,0 ,21.5,0 ,19.9,0 
2003/4/3,22:45,4.2,0 ,22.9,0 ,56.2,0 ,21.5,0 ,19.8,0 
2003/4/3,23:00,3.8,0 ,22.8,0 ,56.4,0 ,21.4,0 ,19.8,0 
2003/4/3,23:15,3.4,0 ,22.8,0 ,56.5,0 ,21.4,0 ,19.7,0 
2003/4/3,23:30,3.6,0 ,22.7,0 ,56.4,0 ,21.3,0 ,19.6,0 
2003/4/3,23:45,3.4,0 ,22.7,0 ,57.6,0 ,21.2,0 ,19.6,0 
2003/4/4,0:00,3.2,0 ,22.6,0 ,57,0 ,21.3,0 ,19.5,0 
2003/4/4,0:15,3,0 ,22.6,0 ,57.3,0 ,21.2,0 ,19.5,0 
2003/4/4,0:30,2.7,0 ,22.5,0 ,57.1,0 ,21.2,0 ,19.5,0 
2003/4/4,0:45,2.8,0 ,22.5,0 ,57,0 ,21.2,0 ,19.4,0 
2003/4/4,1:00,2.7,0 ,22.3,0 ,57.7,0 ,21.1,0 ,19.4,0 
2003/4/4,1:15,2.3,0 ,22.2,0 ,57.8,0 ,20.9,0 ,19.3,0 
2003/4/4,1:30,2.5,0 ,22.2,0 ,57.5,0 ,20.8,0 ,19.3,0 
2003/4/4,1:45,2.4,0 ,22.2,0 ,57.3,0 ,20.7,0 ,19.3,0 
2003/4/4,2:00,2,0 ,22.1,0 ,57.3,0 ,20.6,0 ,19.2,0 
2003/4/4,2:15,1.9,0 ,22.1,0 ,57.2,0 ,20.5,0 ,19.2,0 
2003/4/4,2:30,2.4,0 ,22.1,0 ,57,0 ,20.5,0 ,19.1,0 
2003/4/4,2:45,2.1,0 ,22,0 ,57.1,0 ,20.4,0 ,19.1,0 
2003/4/4,3:00,2.3,0 ,22,0 ,56.9,0 ,20.3,0 ,19,0 
2003/4/4,3:15,2.4,0 ,22,0 ,56.7,0 ,20.2,0 ,18.9,0 
2003/4/4,3:30,2,0 ,22,0 ,56.5,0 ,20.1,0 ,18.9,0 
2003/4/4,3:45,1.7,0 ,22.1,0 ,56.4,0 ,20,0 ,18.8,0 
2003/4/4,4:00,1.8,0 ,22.1,0 ,56.3,0 ,20,0 ,18.8,0 
2003/4/4,4:15,1.7,0 ,22.1,0 ,56.2,0 ,19.9,0 ,18.7,0 
2003/4/4,4:30,1.4,0 ,22.1,0 ,56,0 ,19.9,0 ,18.7,0 
2003/4/4,4:45,1.4,0 ,22.1,0 ,55.7,0 ,19.8,0 ,18.6,0 
2003/4/4,5:00,1.3,0 ,22.2,0 ,55.6,0 ,19.8,0 ,18.6,0 
2003/4/4,5:15,1.2,0 ,22.2,0 ,55.5,0 ,19.7,0 ,18.5,0 
2003/4/4,5:30,1.2,0 ,22.2,0 ,55.3,0 ,19.7,0 ,18.5,0 
2003/4/4,5:45,1.3,0 ,22.2,0 ,55.2,0 ,19.6,0 ,18.4,0 
2003/4/4,6:00,0.5,0 ,22.2,0 ,55.1,0 ,19.6,0 ,18.4,0 
2003/4/4,6:15,1.1,0 ,22.2,0 ,55,0 ,19.6,0 ,18.4,0 
2003/4/4,6:30,0.8,0 ,22.3,0 ,54.8,0 ,19.6,0 ,18.3,0 
2003/4/4,6:45,1.1,0 ,22.4,0 ,54.7,0 ,19.6,0 ,18.3,0 
2003/4/4,7:00,1.5,0 ,22.3,0 ,54.9,0 ,19.9,0 ,18.4,0 
2003/4/4,7:15,2.1,0 ,22.4,0 ,55.2,0 ,20,0 ,18.3,0 
2003/4/4,7:30,2.6,0 ,22.4,0 ,55.2,0 ,20.2,0 ,18.3,0 
2003/4/4,7:45,2.9,0 ,22.5,0 ,55.9,0 ,20.3,0 ,18.4,0 
2003/4/4,8:00,3.7,0 ,22.5,0 ,55.6,0 ,20.4,0 ,18.4,0 
2003/4/4,8:15,3.9,0 ,22.5,0 ,55.8,0 ,20.4,0 ,18.4,0 
2003/4/4,8:30,4.2,0 ,22.5,0 ,56.3,0 ,20.5,0 ,18.4,0 
2003/4/4,8:45,4.6,0 ,22.5,0 ,56.2,0 ,20.6,0 ,18.4,0 
2003/4/4,9:00,4.9,0 ,22.6,0 ,56,0 ,20.7,0 ,18.4,0 
2003/4/4,9:15,6,0 ,22.6,0 ,55.9,0 ,20.8,0 ,18.4,0 
2003/4/4,9:30,6,0 ,22.7,0 ,55.7,0 ,20.8,0 ,18.4,0 
2003/4/4,9:45,6.4,0 ,22.6,0 ,55.7,0 ,20.9,0 ,18.4,0 
2003/4/4,10:00,7.1,0 ,22.7,0 ,55.8,0 ,20.9,0 ,18.4,0 
2003/4/4,10:15,8,0 ,22.7,0 ,55.8,0 ,21,0 ,18.4,0 
2003/4/4,10:30,8.1,0 ,22.8,0 ,55.7,0 ,21.1,0 ,18.6,0 
2003/4/4,10:45,8.5,0 ,22.8,0 ,55.9,0 ,21.2,0 ,18.6,0 
2003/4/4,11:00,8.9,0 ,22.9,0 ,55.5,0 ,21.3,0 ,18.6,0 
2003/4/4,11:15,9.3,0 ,23,0 ,55,0 ,21.3,0 ,18.7,0 
2003/4/4,11:30,9.7,0 ,23.1,0 ,54.7,0 ,21.4,0 ,18.7,0 
2003/4/4,11:45,11,0 ,23.2,0 ,54.4,0 ,21.5,0 ,18.8,0 
2003/4/4,12:00,11.1,0 ,23.2,0 ,53.7,0 ,21.6,0 ,18.8,0 
2003/4/4,12:15,11.4,0 ,23.3,0 ,53.4,0 ,21.6,0 ,18.8,0 
2003/4/4,12:30,12.2,0 ,23.4,0 ,53.3,0 ,21.7,0 ,18.9,0 
2003/4/4,12:45,12.3,0 ,23.5,0 ,53.4,0 ,21.8,0 ,18.9,0 
2003/4/4,13:00,12.3,0 ,23.6,0 ,53.1,0 ,21.9,0 ,19,0 
2003/4/4,13:15,13.4,0 ,23.7,0 ,53,0 ,22,0 ,19.1,0 
2003/4/4,13:30,12.8,0 ,23.8,0 ,52.9,0 ,22.1,0 ,19.2,0 
2003/4/4,13:45,13.1,0 ,23.9,0 ,52.9,0 ,22.3,0 ,19.3,0 
2003/4/4,14:00,13.2,0 ,24,0 ,52.9,0 ,22.4,0 ,19.4,0 
2003/4/4,14:15,12.4,0 ,24,0 ,53,0 ,22.5,0 ,19.6,0 
2003/4/4,14:30,13.2,0 ,24.2,0 ,52.6,0 ,22.7,0 ,19.7,0 
2003/4/4,14:45,12.4,0 ,24.1,0 ,53,0 ,22.7,0 ,19.9,0 
2003/4/4,15:00,12.9,0 ,24.9,0 ,50.7,0 ,22.8,0 ,20,0 
2003/4/4,15:15,12.6,0 ,24.4,0 ,52.2,0 ,22.9,0 ,20.1,0 
2003/4/4,15:30,13.6,0 ,24.2,0 ,53,0 ,23,0 ,20.3,0 
2003/4/4,15:45,13.2,0 ,24.1,0 ,53.4,0 ,23.2,0 ,20.5,0 
2003/4/4,16:00,13,0 ,24.1,0 ,53.6,0 ,23.4,0 ,20.7,0 
2003/4/4,16:15,12.9,0 ,24,0 ,53.9,0 ,23.4,0 ,20.9,0 
2003/4/4,16:30,12.3,0 ,23.9,0 ,54.4,0 ,23.4,0 ,20.9,0 
2003/4/4,16:45,11.9,0 ,23.8,0 ,54.6,0 ,23.2,0 ,20.9,0 
2003/4/4,17:00,11.6,0 ,23.8,0 ,56.1,0 ,23.1,0 ,20.8,0 
2003/4/4,17:15,11.4,0 ,23.8,0 ,55.6,0 ,23,0 ,20.8,0 
2003/4/4,17:30,11.1,0 ,23.8,0 ,56.2,0 ,22.9,0 ,20.7,0 
2003/4/4,17:45,10.9,0 ,23.6,0 ,56.5,0 ,22.8,0 ,20.7,0 
2003/4/4,18:00,10.4,0 ,23.6,0 ,56.7,0 ,22.7,0 ,20.7,0 
2003/4/4,18:15,10,0 ,23.6,0 ,56.9,0 ,22.6,0 ,20.6,0 
2003/4/4,18:30,9.7,0 ,23.6,0 ,56.5,0 ,22.6,0 ,20.6,0 
2003/4/4,18:45,9.6,0 ,23.5,0 ,56.2,0 ,22.5,0 ,20.5,0 
2003/4/4,19:00,9,0 ,23.4,0 ,56.4,0 ,22.4,0 ,20.5,0 
2003/4/4,19:15,8.9,0 ,23.3,0 ,56.7,0 ,22.3,0 ,20.5,0 
2003/4/4,19:30,8.6,0 ,23.3,0 ,56.7,0 ,22.2,0 ,20.4,0 
2003/4/4,19:45,8.4,0 ,23.3,0 ,56.9,0 ,22.2,0 ,20.4,0 
2003/4/4,20:00,8,0 ,23.3,0 ,56.7,0 ,22.1,0 ,20.5,0 
2003/4/4,20:15,7.8,0 ,23.3,0 ,56.5,0 ,22.1,0 ,20.4,0 
2003/4/4,20:30,7.5,0 ,23.3,0 ,56.6,0 ,22,0 ,20.4,0 
2003/4/4,20:45,7.5,0 ,23.3,0 ,56.2,0 ,21.9,0 ,20.3,0 
2003/4/4,21:00,7.6,0 ,23.3,0 ,56,0 ,21.9,0 ,20.2,0 
2003/4/4,21:15,7.2,0 ,23.2,0 ,56.4,0 ,21.8,0 ,20.1,0 
2003/4/4,21:30,7,0 ,23.2,0 ,56.8,0 ,21.7,0 ,20.1,0 
2003/4/4,21:45,6.7,0 ,23.1,0 ,57,0 ,21.6,0 ,20,0 
2003/4/4,22:00,6.5,0 ,23,0 ,57.2,0 ,21.6,0 ,20,0 
2003/4/4,22:15,6.3,0 ,22.9,0 ,56.7,0 ,21.6,0 ,19.9,0 
2003/4/4,22:30,6.4,0 ,23,0 ,56.6,0 ,21.5,0 ,19.9,0 
2003/4/4,22:45,6.1,0 ,22.9,0 ,56.7,0 ,21.5,0 ,19.8,0 
2003/4/4,23:00,5.9,0 ,22.9,0 ,56.9,0 ,21.5,0 ,19.8,0 
2003/4/4,23:15,5.5,0 ,22.9,0 ,56.7,0 ,21.4,0 ,19.8,0 
2003/4/4,23:30,5.6,0 ,22.8,0 ,57.2,0 ,21.4,0 ,19.7,0 
2003/4/4,23:45,5.3,0 ,22.8,0 ,56.9,0 ,21.3,0 ,19.8,0 
2003/4/5,0:00,4.9,0 ,22.8,0 ,57.6,0 ,21.2,0 ,19.8,0 
2003/4/5,0:15,5,0 ,22.7,0 ,58.2,0 ,21.2,0 ,19.7,0 
2003/4/5,0:30,5.2,0 ,22.8,0 ,58.9,0 ,21.1,0 ,19.7,0 
2003/4/5,0:45,4.8,0 ,22.7,0 ,59.1,0 ,21,0 ,19.6,0 
2003/4/5,1:00,4.8,0 ,22.6,0 ,58.8,0 ,21,0 ,19.6,0 
2003/4/5,1:15,5.1,0 ,22.6,0 ,58.6,0 ,20.9,0 ,19.6,0 
2003/4/5,1:30,4.8,0 ,22.5,0 ,58.2,0 ,20.9,0 ,19.5,0 
2003/4/5,1:45,4.5,0 ,22.5,0 ,57.9,0 ,20.8,0 ,19.5,0 
2003/4/5,2:00,3.9,0 ,22.5,0 ,60.1,0 ,20.8,0 ,19.5,0 
2003/4/5,2:15,4.5,0 ,22.5,0 ,60.2,0 ,20.7,0 ,19.5,0 
2003/4/5,2:30,4.2,0 ,22.5,0 ,60,0 ,20.7,0 ,19.5,0 
2003/4/5,2:45,4.3,0 ,22.5,0 ,59.3,0 ,20.6,0 ,19.4,0 
2003/4/5,3:00,4.3,0 ,22.5,0 ,58.8,0 ,20.6,0 ,19.4,0 
2003/4/5,3:15,4.2,0 ,22.5,0 ,58.8,0 ,20.5,0 ,19.4,0 
2003/4/5,3:30,4.3,0 ,22.5,0 ,58.6,0 ,20.5,0 ,19.3,0 
2003/4/5,3:45,4.2,0 ,22.6,0 ,58.3,0 ,20.4,0 ,19.3,0 
2003/4/5,4:00,4.2,0 ,22.6,0 ,58.2,0 ,20.4,0 ,19.2,0 
2003/4/5,4:15,3.9,0 ,22.6,0 ,58.2,0 ,20.4,0 ,19.2,0 
2003/4/5,4:30,3.8,0 ,22.6,0 ,58,0 ,20.3,0 ,19.1,0 
2003/4/5,4:45,3.7,0 ,22.6,0 ,57.5,0 ,20.3,0 ,19.1,0 
2003/4/5,5:00,3.5,0 ,22.7,0 ,57.4,0 ,20.2,0 ,19.1,0 
2003/4/5,5:15,3.1,0 ,22.7,0 ,57.3,0 ,20.2,0 ,19,0 
2003/4/5,5:30,2.7,0 ,22.7,0 ,57,0 ,20.2,0 ,19,0 
2003/4/5,5:45,2.9,0 ,22.8,0 ,56.9,0 ,20.2,0 ,19,0 
2003/4/5,6:00,3,0 ,22.8,0 ,56.9,0 ,20.2,0 ,18.9,0 
2003/4/5,6:15,3.2,0 ,22.8,0 ,56.7,0 ,20.2,0 ,18.9,0 
2003/4/5,6:30,3.2,0 ,22.8,0 ,56.5,0 ,20.1,0 ,18.9,0 
2003/4/5,6:45,3.1,0 ,22.8,0 ,56.4,0 ,20.1,0 ,18.9,0 
2003/4/5,7:00,3,0 ,22.9,0 ,57,0 ,20.1,0 ,18.9,0 
2003/4/5,7:15,3.8,0 ,22.9,0 ,57.3,0 ,20.1,0 ,18.9,0 
2003/4/5,7:30,4,0 ,22.9,0 ,57.8,0 ,20.3,0 ,18.9,0 
2003/4/5,7:45,4.3,0 ,22.9,0 ,58,0 ,20.5,0 ,18.9,0 
2003/4/5,8:00,4.2,0 ,22.9,0 ,57.7,0 ,20.6,0 ,19.1,0 
2003/4/5,8:15,4.6,0 ,22.9,0 ,57.2,0 ,20.6,0 ,19.2,0 
2003/4/5,8:30,5.3,0 ,22.8,0 ,57,0 ,20.7,0 ,19.1,0 
2003/4/5,8:45,5.5,0 ,22.8,0 ,57.4,0 ,20.7,0 ,19,0 
2003/4/5,9:00,6.1,0 ,22.8,0 ,57.4,0 ,20.7,0 ,19,0 
2003/4/5,9:15,6.5,0 ,22.8,0 ,57.2,0 ,20.8,0 ,19,0 
2003/4/5,9:30,5.8,0 ,22.8,0 ,57,0 ,20.8,0 ,19,0 
2003/4/5,9:45,6.6,0 ,22.7,0 ,56.8,0 ,20.9,0 ,19,0 
2003/4/5,10:00,7.3,0 ,22.7,0 ,56.6,0 ,20.9,0 ,19,0 
2003/4/5,10:15,7.2,0 ,22.7,0 ,56.7,0 ,20.9,0 ,19,0 
2003/4/5,10:30,7.5,0 ,22.7,0 ,56.8,0 ,20.9,0 ,19,0 
2003/4/5,10:45,7.5,0 ,22.6,0 ,56.8,0 ,20.9,0 ,19,0 
2003/4/5,11:00,7.1,0 ,22.6,0 ,56.7,0 ,20.8,0 ,19,0 
2003/4/5,11:15,7.4,0 ,22.6,0 ,56.6,0 ,20.8,0 ,19,0 
2003/4/5,11:30,7.3,0 ,22.5,0 ,56.7,0 ,20.8,0 ,18.9,0 
2003/4/5,11:45,7.1,0 ,22.5,0 ,56.6,0 ,20.8,0 ,18.9,0 
2003/4/5,12:00,7.1,0 ,22.4,0 ,56.6,0 ,20.7,0 ,18.9,0 
2003/4/5,12:15,7.2,0 ,22.4,0 ,56.7,0 ,20.7,0 ,18.9,0 
2003/4/5,12:30,7.1,0 ,22.4,0 ,56.7,0 ,20.7,0 ,18.9,0 
2003/4/5,12:45,6.7,0 ,22.4,0 ,57.2,0 ,20.7,0 ,18.9,0 
2003/4/5,13:00,6.7,0 ,22.3,0 ,57.4,0 ,20.6,0 ,18.9,0 
2003/4/5,13:15,7,0 ,22.3,0 ,57.7,0 ,20.6,0 ,18.9,0 
2003/4/5,13:30,7,0 ,22.3,0 ,57.8,0 ,20.7,0 ,18.9,0 
2003/4/5,13:45,7,0 ,22.3,0 ,57.6,0 ,20.7,0 ,18.9,0 
2003/4/5,14:00,7,0 ,22.2,0 ,58.4,0 ,20.7,0 ,18.9,0 
2003/4/5,14:15,6.8,0 ,22.2,0 ,58.1,0 ,20.6,0 ,18.9,0 
2003/4/5,14:30,6.5,0 ,22.1,0 ,58.3,0 ,20.6,0 ,18.9,0 
2003/4/5,14:45,6.9,0 ,22.1,0 ,58.4,0 ,20.6,0 ,18.9,0 
2003/4/5,15:00,6.9,0 ,22,0 ,58.3,0 ,20.5,0 ,18.9,0 